Weather History for KUNU - September, 2014

Change the Weather History Date:

Monday, September 8, 2014

  Actual Average (KMSN) Record (KMSN)
Temperature  
Mean Temperature 63 °F 64 °F  
Max Temperature 73 °F 75 °F 97 °F (1978)
Min Temperature 53 °F 54 °F 37 °F (1986)
Degree Days  
Heating Degree Days 2 3  
Month to date heating degree days 20  
Since 1 July heating degree days 57  
Cooling Degree Days 0 3  
Month to date cooling degree days 24  
Year to date cooling degree days 537  
Growing Degree Days 13 (Base 50)    
Moisture  
Dew Point 54 °F    
Average Humidity 71    
Maximum Humidity 89    
Minimum Humidity 46    
Precipitation  
Precipitation 0.00 in 0.12 in 2.79 in (1941)
Month to date precipitation 0.91  
Year to date precipitation 25.73  
Snow  
Snow 0.00 in 0.00 in 0.00 in ()
Month to date snowfall 0.0  
Since 1 July snowfall 0.0  
Since 1 September snowfall 0.0  
Snow Depth -    
Sea Level Pressure  
Sea Level Pressure 30.08 in    
Wind  
Wind Speed 5 mph (SSE)    
Max Wind Speed 15 mph    
Max Gust Speed 24 mph    
Visibility 10 miles    
Events      
T = Trace of Precipitation, MM = Missing Value Source: NWS Daily Summary

Daily Weather History Graph

Daily Weather History Graph

Search for Another Location

Airport or City:

Trip Planner

Search our weather history database for the weather conditions in past years. The results will help you decide how hot, cold, wet, or windy it might be!

Date:

Astronomy

Sep. 08, 2014 Rise Set
Actual Time 6:26 AM CDT 7:17 PM CDT
Civil Twilight 5:57 AM CDT 7:46 PM CDT
Nautical Twilight 5:22 AM CDT 8:20 PM CDT
Astronomical Twilight 4:46 AM CDT 8:56 PM CDT
Moon 6:56 PM CDT (9/8) 5:51 AM CDT (9/8)
Length of Visible Light 13h 49m
Length of Day
12h 51m
Full, 100% of the Moon is Illuminated
Sep 8
Full
Sep 8
Full
Sep 15
Last Quarter
Sep 24
New
Oct 1
First Quarter

Hourly Weather History & Observations

Time (CDT) Temp. Dew Point Humidity Pressure Visibility Wind Dir Wind Speed Gust Speed Precip Events Conditions
12:15 AM 57.7 °F 54.1 °F 88% 30.14 in 10.0 mi Calm Calm - N/A   Clear
12:35 AM 58.5 °F 54.0 °F 85% 30.14 in 10.0 mi Calm Calm - N/A   Clear
12:55 AM 58.1 °F 53.8 °F 86% 30.14 in 10.0 mi SE 3.5 mph - N/A   Clear
1:15 AM 57.6 °F 53.6 °F 87% 30.14 in 10.0 mi SE 3.5 mph - N/A   Scattered Clouds
1:35 AM 57.2 °F 53.2 °F 87% 30.14 in 10.0 mi Calm Calm - N/A   Scattered Clouds
1:55 AM 56.8 °F 52.9 °F 87% 30.15 in 10.0 mi SE 3.5 mph - N/A   Clear
2:15 AM 56.5 °F 52.7 °F 87% 30.14 in 10.0 mi SE 3.5 mph - N/A   Clear
2:35 AM 56.7 °F 52.2 °F 85% 30.14 in 10.0 mi SE 3.5 mph - N/A   Mostly Cloudy
2:55 AM 56.7 °F 52.2 °F 85% 30.14 in 10.0 mi SE 3.5 mph - N/A   Overcast
3:15 AM 56.5 °F 52.2 °F 85% 30.14 in 10.0 mi SE 3.5 mph - N/A   Overcast
3:35 AM 56.3 °F 51.8 °F 85% 30.14 in 10.0 mi Calm Calm - N/A   Mostly Cloudy
3:55 AM 57.2 °F 51.3 °F 81% 30.14 in 10.0 mi Calm Calm - N/A   Mostly Cloudy
4:15 AM 56.3 °F 51.1 °F 83% 30.14 in 10.0 mi Calm Calm - N/A   Mostly Cloudy
4:35 AM 56.1 °F 50.9 °F 83% 30.14 in 10.0 mi SE 3.5 mph - N/A   Scattered Clouds
5:35 AM 54.5 °F 50.2 °F 85% 30.14 in 10.0 mi SE 4.6 mph - N/A   Clear
5:55 AM 54.1 °F 50.2 °F 86% 30.13 in 10.0 mi SE 4.6 mph - N/A   Clear
6:15 AM 53.8 °F 50.0 °F 87% 30.13 in 10.0 mi ESE 4.6 mph - N/A   Clear
6:35 AM 53.2 °F 50.0 °F 89% 30.13 in 10.0 mi ESE 4.6 mph - N/A   Clear
6:55 AM 53.8 °F 50.0 °F 87% 30.13 in 10.0 mi ESE 3.5 mph - N/A   Clear
7:15 AM 53.6 °F 50.2 °F 88% 30.13 in 10.0 mi ESE 4.6 mph - N/A   Clear
7:35 AM 55.0 °F 51.1 °F 86% 30.13 in 10.0 mi ESE 5.8 mph - N/A   Clear
7:55 AM 56.7 °F 52.3 °F 85% 30.13 in 10.0 mi SE 3.5 mph - N/A   Clear
8:15 AM 58.3 °F 53.6 °F 84% 30.14 in 10.0 mi Calm Calm - N/A   Clear
8:35 AM 59.9 °F 55.0 °F 84% 30.12 in 10.0 mi SE 3.5 mph - N/A   Clear
8:55 AM 62.2 °F 54.9 °F 77% 30.13 in 10.0 mi South 4.6 mph - N/A   Clear
9:15 AM 63.7 °F 55.2 °F 74% 30.13 in 10.0 mi South 3.5 mph - N/A   Clear
9:35 AM 65.8 °F 56.5 °F 72% 30.12 in 10.0 mi SE 4.6 mph - N/A   Clear
9:55 AM 67.3 °F 56.5 °F 68% 30.13 in 10.0 mi South 5.8 mph - N/A   Clear
10:15 AM 68.4 °F 54.7 °F 62% 30.13 in 10.0 mi South 6.9 mph - N/A   Clear
10:35 AM 69.4 °F 55.0 °F 60% 30.12 in 10.0 mi South 5.8 mph - N/A   Clear
10:55 AM 70.5 °F 52.9 °F 54% 30.12 in 10.0 mi SSW 9.2 mph - N/A   Clear
11:15 AM 71.2 °F 54.1 °F 55% 30.12 in 10.0 mi SSE 10.4 mph - N/A   Clear
11:35 AM 71.1 °F 53.8 °F 54% 30.12 in 10.0 mi SSW 9.2 mph - N/A   Clear
12:15 PM 73.4 °F 52.7 °F 48% 30.10 in 10.0 mi South 12.7 mph 17.3 mph N/A   Scattered Clouds
12:35 PM 72.3 °F 51.8 °F 48% 30.09 in 10.0 mi SSE 15.0 mph 18.4 mph N/A   Scattered Clouds
12:55 PM 73.2 °F 51.6 °F 47% 30.08 in 10.0 mi South 10.4 mph 16.1 mph N/A   Scattered Clouds
1:15 PM 72.9 °F 51.6 °F 47% 30.07 in 10.0 mi South 12.7 mph - N/A   Scattered Clouds
1:35 PM 72.5 °F 52.7 °F 50% 30.06 in 10.0 mi SSE 11.5 mph - N/A   Clear
1:55 PM 72.7 °F 52.5 °F 49% 30.05 in 10.0 mi SSE 15.0 mph 24.2 mph N/A   Clear
2:15 PM 72.5 °F 52.2 °F 49% 30.05 in 10.0 mi SSE 10.4 mph - N/A   Scattered Clouds
2:35 PM 72.7 °F 52.9 °F 50% 30.05 in 10.0 mi SSE 10.4 mph 18.4 mph N/A   Mostly Cloudy
2:55 PM 73.4 °F 51.4 °F 46% 30.05 in 10.0 mi South 11.5 mph 19.6 mph N/A   Mostly Cloudy
3:15 PM 72.7 °F 52.2 °F 48% 30.04 in 10.0 mi South 9.2 mph - N/A   Mostly Cloudy
3:35 PM 73.0 °F 52.9 °F 49% 30.04 in 10.0 mi SSE 12.7 mph - N/A   Mostly Cloudy
3:55 PM 73.2 °F 52.5 °F 48% 30.02 in 10.0 mi South 12.7 mph - N/A   Scattered Clouds
4:15 PM 72.5 °F 53.2 °F 51% 30.02 in 10.0 mi South 12.7 mph 18.4 mph N/A   Clear
4:35 PM 71.2 °F 52.7 °F 52% 30.01 in 10.0 mi SSE 15.0 mph - N/A   Clear
5:15 PM 69.8 °F 53.1 °F 55% 30.01 in 10.0 mi SSE 9.2 mph - N/A   Clear
5:35 PM 68.9 °F 54.0 °F 59% 30.00 in 10.0 mi SSE 8.1 mph - N/A   Clear
5:55 PM 68.9 °F 53.8 °F 58% 30.01 in 10.0 mi South 5.8 mph - N/A   Mostly Cloudy
6:15 PM 68.2 °F 53.8 °F 60% 30.01 in 10.0 mi South 9.2 mph - N/A   Scattered Clouds
6:35 PM 67.5 °F 54.7 °F 64% 30.00 in 10.0 mi SSE 6.9 mph - N/A   Scattered Clouds
6:55 PM 67.1 °F 54.7 °F 64% 30.00 in 10.0 mi SSE 6.9 mph - N/A   Scattered Clouds
7:15 PM 66.4 °F 55.2 °F 67% 30.00 in 10.0 mi SSE 4.6 mph - N/A   Scattered Clouds
7:35 PM 66.2 °F 55.2 °F 68% 30.00 in 10.0 mi SSE 8.1 mph - N/A   Mostly Cloudy
7:55 PM 65.3 °F 55.8 °F 71% 30.00 in 10.0 mi SE 4.6 mph - N/A   Overcast
8:15 PM 64.9 °F 55.9 °F 73% 30.01 in 10.0 mi SE 6.9 mph - N/A   Overcast
8:35 PM 64.6 °F 55.8 °F 73% 30.01 in 10.0 mi SE 8.1 mph - N/A   Mostly Cloudy
8:55 PM 63.7 °F 56.3 °F 77% 30.01 in 10.0 mi SE 6.9 mph - N/A   Scattered Clouds
9:15 PM 63.5 °F 56.3 °F 77% 30.01 in 10.0 mi SE 8.1 mph - N/A   Clear
9:35 PM 62.8 °F 56.5 °F 80% 30.01 in 10.0 mi SE 8.1 mph - N/A   Clear
9:55 PM 61.9 °F 56.3 °F 82% 30.01 in 10.0 mi SE 6.9 mph - N/A   Clear
10:15 PM 61.5 °F 56.3 °F 83% 30.01 in 10.0 mi SE 8.1 mph - N/A   Clear
10:35 PM 60.8 °F 56.3 °F 85% 30.01 in 10.0 mi SE 6.9 mph - N/A   Clear
10:55 PM 60.6 °F 55.8 °F 84% 30.02 in 10.0 mi South 3.5 mph - N/A   Clear
11:15 PM 60.3 °F 55.9 °F 86% 30.01 in 10.0 mi SSE 4.6 mph - N/A   Mostly Cloudy
11:35 PM 60.1 °F 55.8 °F 86% 30.00 in 10.0 mi SE 4.6 mph - N/A   Scattered Clouds
11:55 PM 59.4 °F 55.8 °F 88% 30.00 in 10.0 mi SE 5.8 mph - N/A   Clear